Location: Brivio
(45.7333°N, 9.4500°E)
Time: 01:56:36
(UTC+00:00)

N. Korean satellite - Pass Details

Date: 18 December 2019
Orbit: 454 x 507 km, 97.2° (Epoch: 23 January)

Event Time Altitude Azimuth Distance (km) Brightness Sun altitude
Rises 04:43:21 0° 21° (NNE) 2,517 10.3 -22.5°
Reaches altitude 10° 04:45:35 10° 33° (NNE) 1,627 9.5 -22.1°
Maximum altitude 04:48:43 30° 96° (E) 845 8.4 -21.5°
Drops below altitude 10° 04:51:47 10° 160° (SSE) 1,596 9.6 -21.0°
Sets 04:53:57 0° 171° (S) 2,459 10.4 -20.7°
